WetterOnline ( https://www.wetteronline.de )

Wetter aktuell San Zeno-San Giuseppe

Aktuelles Wetter: Passo Rolle (2006m)

6-stündlich | Neueste Meldungen
Ortszeit Temperatur Wetter
Fr, 12.04. 20:00 9.6° C leicht bewölkt
Fr, 12.04. 14:00 10.4° C leicht bewölkt
Fr, 12.04. 8:00 5.4° C wolkenlos
Fr, 12.04. 2:00 5.8° C wolkenlos
Do, 11.04. 20:00 8.4° C leicht bewölkt
Do, 11.04. 14:00 10.0° C leicht bewölkt
Do, 11.04. 8:00 3.8° C wolkenlos
Do, 11.04. 2:00 4.4° C wolkenlos
Ortszeit Temperatur Wetter
Sa, 13.04. 0:00 8.8° C leicht bewölkt
Fr, 12.04. 23:00 8.8° C leicht bewölkt
Fr, 12.04. 22:00 8.0° C leicht bewölkt
Fr, 12.04. 21:00 9.2° C leicht bewölkt
Fr, 12.04. 20:00 9.6° C leicht bewölkt
Fr, 12.04. 19:00 11.8° C leicht bewölkt
Fr, 12.04. 18:00 10.2° C leicht bewölkt
Ortszeit Relative Feuchte Sichtweite
Fr, 12.04. 20:00 55% 50 km
Fr, 12.04. 14:00 48% >70 km
Fr, 12.04. 8:00 86% >70 km
Fr, 12.04. 2:00 91% 10 km
Do, 11.04. 20:00 63% 35 km
Do, 11.04. 14:00 44% >70 km
Do, 11.04. 8:00 72% >70 km
Do, 11.04. 2:00 74% 10 km
Ortszeit Relative Feuchte Sichtweite
Sa, 13.04. 0:00 46% 15 km
Fr, 12.04. 23:00 45% 15 km
Fr, 12.04. 22:00 48% 15 km
Fr, 12.04. 21:00 50% 15 km
Fr, 12.04. 20:00 55% 50 km
Fr, 12.04. 19:00 40% >70 km
Fr, 12.04. 18:00 43% >70 km
Ortszeit Niederschlagsmenge Niederschlagsart
Fr, 12.04. 20:00 0.0 l/m2 in 12 Std. -
Fr, 12.04. 14:00 0.0 l/m2 in 6 Std. -
Fr, 12.04. 8:00 0.0 l/m2 in 12 Std. -
Fr, 12.04. 2:00 0.0 l/m2 in 6 Std. -
Do, 11.04. 20:00 0.0 l/m2 in 12 Std. -
Do, 11.04. 14:00 0.0 l/m2 in 6 Std. -
Do, 11.04. 8:00 0.0 l/m2 in 12 Std. -
Do, 11.04. 2:00 0.0 l/m2 in 6 Std. -
Ortszeit Niederschlagsmenge Niederschlagsart
Sa, 13.04. 0:00 keine Meldung -
Fr, 12.04. 23:00 keine Meldung -
Fr, 12.04. 22:00 keine Meldung -
Fr, 12.04. 21:00 keine Meldung -
Fr, 12.04. 20:00 keine Meldung -
Fr, 12.04. 19:00 keine Meldung -
Fr, 12.04. 18:00 keine Meldung -
Ortszeit Stärke Spitze Richtung
km/h Bft. km/h Grad Sektor
Fr, 12.04. 20:00 6 1 - 90° O
Fr, 12.04. 14:00 9 2 - 50° NO
Fr, 12.04. 8:00 4 1 - 320° NW
Fr, 12.04. 2:00 6 1 - 330° NW
Do, 11.04. 20:00 15 3 - 70° O
Do, 11.04. 14:00 4 1 - 340° N
Do, 11.04. 8:00 6 1 - 270° W
Do, 11.04. 2:00 17 3 - 300° NW
Ortszeit Stärke Spitze Richtung
km/h Bft. km/h Grad Sektor
Sa, 13.04. 0:00 4 1 - 340° N
Fr, 12.04. 23:00 6 1 - 340° N
Fr, 12.04. 22:00 4 1 - 20° N
Fr, 12.04. 21:00 4 1 - 290° W
Fr, 12.04. 20:00 6 1 - 90° O
Fr, 12.04. 19:00 4 1 - 70° O
Fr, 12.04. 18:00 7 2 - 30° NO
Ortszeit Untergrenze Bedeckung Gattung
total tief tief mittel hoch
Fr, 12.04. 20:00 5100 m 3/8 3/8 - - Ci
Fr, 12.04. 14:00 1200 m 2/8 2/8 Cu - -
Fr, 12.04. 8:00 - 0/8 0/8 - - -
Fr, 12.04. 2:00 - 0/8 0/8 - - -
Do, 11.04. 20:00 2400 m 2/8 2/8 - Ac -
Do, 11.04. 14:00 5100 m 5/8 5/8 - - Ci
Do, 11.04. 8:00 - 0/8 0/8 - - -
Do, 11.04. 2:00 - 0/8 0/8 - - -
Ortszeit Bedeckungsgrad in Achtel und Wolkenuntergrenze
Sa, 13.04. 0:00 2
Fr, 12.04. 23:00 2
Fr, 12.04. 22:00 2
Fr, 12.04. 21:00 3
Fr, 12.04. 20:00 3(5100m)
Fr, 12.04. 19:00 2(900m)
Fr, 12.04. 18:00 3(750m)
Ortszeit Stationsdruck (hPa) Tendenz (hPa in 3 Std.)
Fr, 12.04. 20:00 810 - 0,6
Fr, 12.04. 14:00 812 + 0,3
Fr, 12.04. 8:00 811 0,0
Fr, 12.04. 2:00 811 0,0
Do, 11.04. 20:00 811 + 0,7
Do, 11.04. 14:00 809 + 0,9
Do, 11.04. 8:00 807 + 0,3
Do, 11.04. 2:00 806 + 0,4
Ortszeit Stationsdruck (hPa) Tendenz (hPa in 3 Std.)
Sa, 13.04. 0:00 811 + 0,3
Fr, 12.04. 23:00 811 + 0,3
Fr, 12.04. 22:00 811 + 0,2
Fr, 12.04. 21:00 810 - 0,3
Fr, 12.04. 20:00 810 - 0,6
Fr, 12.04. 19:00 811 - 1,1
Fr, 12.04. 18:00 811 - 1,1
Ortszeit Schneehöhe (cm)
Fr, 12.04. 20:00 -
Fr, 12.04. 14:00 -
Fr, 12.04. 8:00 113
Fr, 12.04. 2:00 -
Do, 11.04. 20:00 -
Do, 11.04. 14:00 -
Do, 11.04. 8:00 118
Do, 11.04. 2:00 -
Ortszeit Schneehöhe (cm)
Sa, 13.04. 0:00 -
Fr, 12.04. 23:00 -
Fr, 12.04. 22:00 -
Fr, 12.04. 21:00 -
Fr, 12.04. 20:00 -
Fr, 12.04. 19:00 -
Fr, 12.04. 18:00 -
Link zu dieser Seite / Seite empfehlen

Das Wetter in ...